STARLINK-35109 (65642 NORAD) Tracking and Keplerian Element Data

This shows tracking and keplerian element data for the satellite.

Feedback or suggestion? Click here.




ElementValue
Catalog65642
NameSTARLINK-35109
Epoch Orbit1556
Epoch Day354.19059911
Epoch Year2025
RAAN316.0434
Inclination53.1591
Eccentricity0.0001883
Argument of Perigee101.0475
Mean Anonmoly259.0737
Mean Motion15.30180248
Decay Rate4.48E-05
L11 65642U 25210W 25354.19059911 .00004480 00000+0 16340-3 0 9999
L22 65642 53.1591 316.0434 0001883 101.0475 259.0737 15.30180248 15560



Live tracking and technical data element details for STARLINK-35109 (NORAD 65642). STARLINK-35109 can be tracked NOW for your location showing map with azimuth and elevation plus other details from your city location.







IsCatalogInMostPopularTable: catalog: 65642, numindb: 14
Update: records affected: 1



GetName: 65642 STARLINK-35109

Hit Count: updated at: Mon, 20 Apr 2026 09:15:24 GMT